Time,TemperatureF,DewpointF,PressureIn,WindDirection,WindDirectionDegrees,WindSpeedMPH,WindSpeedGustMPH,Humidity,HourlyPrecipIn,Conditions,Clouds,dailyrainin,SoftwareType,DateUTC
2013-02-21 00:02:00,29.9,29.0,27.22,NNW,337,0.0,0.0,97,0.00,,,0.00,Rainwise IP-100,2013-02-21 08:02:00,
2013-02-21 00:07:00,29.6,29.0,27.23,NNW,337,0.0,1.6,97,0.00,,,0.00,Rainwise IP-100,2013-02-21 08:07:00,
2013-02-21 00:12:00,29.4,29.0,27.22,NNW,337,0.0,1.2,97,0.00,,,0.00,Rainwise IP-100,2013-02-21 08:12:00,
2013-02-21 00:17:00,29.2,29.0,27.23,NNW,337,0.0,1.4,97,0.00,,,0.00,Rainwise IP-100,2013-02-21 08:17:00,
2013-02-21 00:22:00,29.0,29.0,27.22,NNW,337,0.0,1.4,97,0.00,,,0.00,Rainwise IP-100,2013-02-21 08:22:00,
2013-02-21 00:27:00,29.0,29.0,27.22,NNW,337,0.0,1.6,97,0.00,,,0.00,Rainwise IP-100,2013-02-21 08:27:00,
2013-02-21 00:32:00,28.9,29.0,27.22,NNW,337,0.0,1.4,97,0.00,,,0.00,Rainwise IP-100,2013-02-21 08:32:00,
2013-02-21 00:37:00,28.9,29.0,27.22,NNW,337,0.0,1.2,97,0.00,,,0.00,Rainwise IP-100,2013-02-21 08:37:00,
2013-02-21 00:42:00,28.8,29.0,27.22,NNW,337,0.0,2.1,97,0.00,,,0.00,Rainwise IP-100,2013-02-21 08:42:00,
2013-02-21 00:48:00,28.8,29.0,27.22,NNW,337,1.2,1.9,98,0.00,,,0.00,Rainwise IP-100,2013-02-21 08:48:00,
2013-02-21 00:53:00,28.8,29.0,27.22,NNW,337,1.4,1.6,98,0.00,,,0.00,Rainwise IP-100,2013-02-21 08:53:00,
2013-02-21 00:58:00,28.8,29.0,27.23,NNW,337,2.1,2.8,98,0.00,,,0.00,Rainwise IP-100,2013-02-21 08:58:00,
2013-02-21 01:03:00,28.9,29.0,27.23,NNW,337,2.8,3.0,98,0.00,,,0.00,Rainwise IP-100,2013-02-21 09:03:00,
2013-02-21 01:08:00,29.4,29.0,27.23,NNW,337,2.1,3.0,98,0.00,,,0.00,Rainwise IP-100,2013-02-21 09:08:00,
2013-02-21 01:13:00,29.7,31.0,27.23,NNW,337,2.1,2.6,98,0.00,,,0.00,Rainwise IP-100,2013-02-21 09:13:00,
2013-02-21 01:18:00,29.8,29.0,27.23,NNW,337,0.0,2.8,97,0.00,,,0.00,Rainwise IP-100,2013-02-21 09:18:00,
2013-02-21 01:24:00,29.8,29.0,27.22,NNW,337,1.2,1.4,97,0.00,,,0.00,Rainwise IP-100,2013-02-21 09:24:00,
2013-02-21 01:29:00,29.9,29.0,27.23,NNW,337,0.0,1.6,97,0.00,,,0.00,Rainwise IP-100,2013-02-21 09:29:00,
2013-02-21 01:34:00,29.8,29.0,27.22,NNW,337,0.0,0.0,97,0.00,,,0.00,Rainwise IP-100,2013-02-21 09:34:00,
2013-02-21 01:39:00,29.7,29.0,27.23,NNW,337,0.0,2.6,97,0.00,,,0.00,Rainwise IP-100,2013-02-21 09:39:00,
2013-02-21 01:44:00,29.8,29.0,27.23,NNW,337,0.0,2.1,97,0.00,,,0.00,Rainwise IP-100,2013-02-21 09:44:00,
2013-02-21 01:49:00,29.9,29.0,27.22,NNW,337,0.0,1.4,97,0.00,,,0.00,Rainwise IP-100,2013-02-21 09:49:00,
2013-02-21 01:54:00,29.9,29.0,27.23,NNW,337,0.0,0.0,97,0.00,,,0.00,Rainwise IP-100,2013-02-21 09:54:00,
2013-02-21 01:59:00,29.8,29.0,27.23,NNW,337,0.0,1.6,97,0.00,,,0.00,Rainwise IP-100,2013-02-21 09:59:00,
2013-02-21 02:04:00,29.5,29.0,27.23,NNW,337,0.0,0.0,97,0.00,,,0.00,Rainwise IP-100,2013-02-21 10:04:00,
2013-02-21 02:09:00,29.2,29.0,27.23,NNW,337,1.4,1.4,97,0.00,,,0.00,Rainwise IP-100,2013-02-21 10:09:00,
2013-02-21 02:15:00,29.1,29.0,27.23,NNW,337,2.6,2.8,97,0.00,,,0.00,Rainwise IP-100,2013-02-21 10:15:00,
2013-02-21 02:20:00,29.5,29.0,27.23,NNW,337,1.9,3.3,97,0.00,,,0.00,Rainwise IP-100,2013-02-21 10:20:00,
2013-02-21 02:25:00,29.9,29.0,27.23,NNW,337,0.0,2.1,97,0.00,,,0.00,Rainwise IP-100,2013-02-21 10:25:00,
2013-02-21 02:30:00,30.1,29.0,27.23,NNW,337,3.0,3.3,97,0.00,,,0.00,Rainwise IP-100,2013-02-21 10:30:00,
2013-02-21 02:35:00,30.2,29.0,27.24,NNW,337,1.6,3.0,97,0.00,,,0.00,Rainwise IP-100,2013-02-21 10:35:00,
2013-02-21 02:40:00,30.2,29.0,27.23,NNW,337,0.0,1.9,97,0.00,,,0.00,Rainwise IP-100,2013-02-21 10:40:00,
2013-02-21 02:45:00,30.3,29.0,27.23,NNW,337,0.0,0.0,97,0.00,,,0.00,Rainwise IP-100,2013-02-21 10:45:00,
2013-02-21 02:50:00,30.2,29.0,27.23,NNW,337,0.0,1.2,97,0.00,,,0.00,Rainwise IP-100,2013-02-21 10:50:00,
2013-02-21 02:55:00,30.1,29.0,27.23,NNW,337,0.0,1.9,97,0.00,,,0.00,Rainwise IP-100,2013-02-21 10:55:00,
2013-02-21 03:00:00,30.2,29.0,27.23,NNW,337,0.0,0.0,97,0.00,,,0.00,Rainwise IP-100,2013-02-21 11:00:00,
2013-02-21 03:05:00,30.2,29.0,27.24,NNW,337,0.0,0.0,97,0.00,,,0.00,Rainwise IP-100,2013-02-21 11:05:00,
2013-02-21 03:10:00,30.1,29.0,27.24,NNW,337,0.0,1.9,97,0.00,,,0.00,Rainwise IP-100,2013-02-21 11:10:00,
2013-02-21 03:16:00,30.1,29.0,27.24,NNW,337,0.0,1.4,97,0.00,,,0.00,Rainwise IP-100,2013-02-21 11:16:00,
2013-02-21 03:21:00,30.2,29.0,27.23,NNW,337,0.0,0.0,97,0.00,,,0.00,Rainwise IP-100,2013-02-21 11:21:00,
2013-02-21 03:26:00,30.4,31.0,27.24,NNW,337,0.0,0.0,98,0.00,,,0.00,Rainwise IP-100,2013-02-21 11:26:00,
2013-02-21 03:31:00,30.5,31.0,27.24,NNW,337,0.0,0.0,98,0.00,,,0.00,Rainwise IP-100,2013-02-21 11:31:00,
2013-02-21 03:36:00,30.4,31.0,27.24,NNW,337,0.0,1.2,98,0.00,,,0.00,Rainwise IP-100,2013-02-21 11:36:00,
2013-02-21 03:41:00,30.5,31.0,27.24,NNW,337,0.0,0.0,98,0.00,,,0.00,Rainwise IP-100,2013-02-21 11:41:00,
2013-02-21 03:46:00,30.8,31.0,27.24,NNW,337,0.0,0.0,98,0.00,,,0.00,Rainwise IP-100,2013-02-21 11:46:00,
2013-02-21 03:51:00,30.8,31.0,27.24,NNW,337,0.0,0.0,98,0.00,,,0.00,Rainwise IP-100,2013-02-21 11:51:00,
2013-02-21 03:56:00,30.9,31.0,27.24,NNW,337,0.0,0.0,98,0.00,,,0.00,Rainwise IP-100,2013-02-21 11:56:00,
2013-02-21 04:01:00,30.9,31.0,27.24,NNW,337,0.0,0.0,98,0.00,,,0.00,Rainwise IP-100,2013-02-21 12:01:00,
2013-02-21 04:06:00,30.8,31.0,27.24,NNW,337,0.0,1.2,98,0.00,,,0.00,Rainwise IP-100,2013-02-21 12:06:00,
2013-02-21 04:11:00,30.8,31.0,27.24,NNW,337,0.0,1.9,98,0.00,,,0.00,Rainwise IP-100,2013-02-21 12:11:00,
2013-02-21 04:17:00,30.9,31.0,27.25,NNW,337,0.0,0.0,98,0.00,,,0.00,Rainwise IP-100,2013-02-21 12:17:00,
2013-02-21 04:22:00,30.9,31.0,27.26,NNW,337,0.0,1.2,98,0.00,,,0.00,Rainwise IP-100,2013-02-21 12:22:00,
2013-02-21 04:27:00,30.8,31.0,27.25,NNW,337,0.0,0.0,98,0.00,,,0.00,Rainwise IP-100,2013-02-21 12:27:00,
2013-02-21 04:32:00,30.7,31.0,27.26,NNW,337,0.0,0.0,98,0.00,,,0.00,Rainwise IP-100,2013-02-21 12:32:00,
2013-02-21 04:37:00,30.8,31.0,27.26,NNW,337,0.0,0.0,98,0.00,,,0.00,Rainwise IP-100,2013-02-21 12:37:00,
2013-02-21 04:42:00,30.9,31.0,27.26,NNW,337,0.0,0.0,98,0.00,,,0.00,Rainwise IP-100,2013-02-21 12:42:00,
2013-02-21 04:47:00,30.9,31.0,27.26,NNW,337,0.0,0.0,98,0.00,,,0.00,Rainwise IP-100,2013-02-21 12:47:00,
2013-02-21 04:52:00,31.0,31.0,27.26,NNW,337,0.0,0.0,98,0.00,,,0.00,Rainwise IP-100,2013-02-21 12:52:00,
2013-02-21 04:57:00,31.0,31.0,27.26,NNW,337,0.0,0.0,98,0.00,,,0.00,Rainwise IP-100,2013-02-21 12:57:00,
2013-02-21 05:02:00,31.0,31.0,27.26,NNW,337,0.0,1.4,98,0.00,,,0.00,Rainwise IP-100,2013-02-21 13:02:00,
2013-02-21 05:07:00,31.0,31.0,27.26,NNW,337,0.0,0.0,98,0.00,,,0.00,Rainwise IP-100,2013-02-21 13:07:00,
2013-02-21 05:12:00,31.0,31.0,27.26,NNW,337,0.0,1.9,98,0.00,,,0.00,Rainwise IP-100,2013-02-21 13:12:00,
2013-02-21 05:18:00,30.9,31.0,27.26,NNW,337,0.0,1.2,98,0.00,,,0.00,Rainwise IP-100,2013-02-21 13:18:00,
2013-02-21 05:23:00,30.8,31.0,27.27,NNW,337,0.0,0.0,98,0.00,,,0.00,Rainwise IP-100,2013-02-21 13:23:00,
2013-02-21 05:28:00,30.6,31.0,27.27,NNW,337,0.0,1.2,98,0.00,,,0.00,Rainwise IP-100,2013-02-21 13:28:00,
2013-02-21 05:33:00,30.2,31.0,27.26,NNW,337,0.0,1.9,98,0.00,,,0.00,Rainwise IP-100,2013-02-21 13:33:00,
2013-02-21 05:38:00,30.1,31.0,27.26,NNW,337,0.0,0.0,98,0.00,,,0.00,Rainwise IP-100,2013-02-21 13:38:00,
2013-02-21 05:43:00,30.1,31.0,27.26,NNW,337,0.0,0.0,98,0.00,,,0.00,Rainwise IP-100,2013-02-21 13:43:00,
2013-02-21 05:48:00,29.9,31.0,27.25,NNW,337,0.0,0.0,98,0.00,,,0.00,Rainwise IP-100,2013-02-21 13:48:00,
2013-02-21 05:54:00,29.5,31.0,27.25,NNW,337,0.0,0.0,98,0.00,,,0.00,Rainwise IP-100,2013-02-21 13:54:00,
2013-02-21 06:00:00,29.2,29.0,27.25,NNW,337,0.0,0.0,98,0.00,,,0.00,Rainwise IP-100,2013-02-21 14:00:00,
2013-02-21 06:05:00,29.0,29.0,27.25,NNW,337,0.0,0.0,98,0.00,,,0.00,Rainwise IP-100,2013-02-21 14:05:00,
2013-02-21 06:10:00,28.7,29.0,27.26,NNW,337,0.0,0.0,98,0.00,,,0.00,Rainwise IP-100,2013-02-21 14:10:00,
2013-02-21 06:15:00,28.5,29.0,27.26,NNW,337,0.0,0.0,98,0.00,,,0.00,Rainwise IP-100,2013-02-21 14:15:00,
2013-02-21 06:20:00,28.3,28.0,27.26,NNW,337,0.0,0.0,98,0.00,,,0.00,Rainwise IP-100,2013-02-21 14:20:00,
2013-02-21 06:25:00,28.1,28.0,27.26,NNW,337,0.0,1.2,98,0.00,,,0.00,Rainwise IP-100,2013-02-21 14:25:00,
2013-02-21 06:30:00,28.0,28.0,27.26,NNW,337,1.4,1.4,99,0.00,,,0.00,Rainwise IP-100,2013-02-21 14:30:00,
2013-02-21 06:35:00,28.1,28.0,27.25,NNW,337,0.0,2.1,99,0.00,,,0.00,Rainwise IP-100,2013-02-21 14:35:00,
2013-02-21 06:40:00,28.3,28.0,27.25,NNW,337,0.0,0.0,99,0.00,,,0.00,Rainwise IP-100,2013-02-21 14:40:00,
2013-02-21 06:45:00,28.3,28.0,27.25,NNW,337,0.0,1.4,99,0.00,,,0.00,Rainwise IP-100,2013-02-21 14:45:00,
2013-02-21 06:51:00,28.4,28.0,27.26,NNW,337,0.0,0.0,99,0.00,,,0.00,Rainwise IP-100,2013-02-21 14:51:00,
2013-02-21 06:56:00,28.4,28.0,27.26,NNW,337,0.0,0.0,99,0.00,,,0.00,Rainwise IP-100,2013-02-21 14:56:00,
2013-02-21 07:01:00,28.3,28.0,27.26,NNW,337,0.0,1.4,99,0.00,,,0.00,Rainwise IP-100,2013-02-21 15:01:00,
2013-02-21 07:06:00,28.0,28.0,27.26,NNW,337,0.0,0.0,99,0.00,,,0.00,Rainwise IP-100,2013-02-21 15:06:00,
2013-02-21 07:11:00,27.8,28.0,27.26,NNW,337,1.6,1.9,99,0.00,,,0.00,Rainwise IP-100,2013-02-21 15:11:00,
2013-02-21 07:16:00,28.2,28.0,27.26,NNW,337,0.0,2.3,99,0.00,,,0.00,Rainwise IP-100,2013-02-21 15:16:00,
2013-02-21 07:21:00,28.5,29.0,27.26,NNW,337,1.2,2.1,99,0.00,,,0.00,Rainwise IP-100,2013-02-21 15:21:00,
2013-02-21 07:26:00,28.4,28.0,27.27,NNW,337,0.0,1.4,99,0.00,,,0.00,Rainwise IP-100,2013-02-21 15:26:00,
2013-02-21 07:31:00,28.6,29.0,27.27,NNW,337,0.0,2.6,99,0.00,,,0.00,Rainwise IP-100,2013-02-21 15:31:00,
2013-02-21 07:36:00,29.5,31.0,27.28,NNW,337,0.0,2.3,99,0.00,,,0.00,Rainwise IP-100,2013-02-21 15:36:00,
2013-02-21 07:41:00,30.2,31.0,27.28,NNW,337,0.0,1.6,99,0.00,,,0.00,Rainwise IP-100,2013-02-21 15:41:00,
2013-02-21 07:46:00,30.7,31.0,27.29,ENE,67,0.0,2.3,99,0.00,,,0.00,Rainwise IP-100,2013-02-21 15:46:00,
2013-02-21 07:52:00,31.5,32.0,27.29,ENE,67,0.0,0.0,99,0.00,,,0.00,Rainwise IP-100,2013-02-21 15:52:00,
2013-02-21 07:57:00,32.6,33.0,27.30,ENE,67,0.0,0.0,99,0.00,,,0.00,Rainwise IP-100,2013-02-21 15:57:00,
2013-02-21 08:02:00,33.4,33.0,27.31,ENE,67,0.0,0.0,99,0.00,,,0.00,Rainwise IP-100,2013-02-21 16:02:00,
2013-02-21 08:07:00,34.3,35.0,27.31,ENE,67,0.0,0.0,99,0.00,,,0.00,Rainwise IP-100,2013-02-21 16:07:00,
2013-02-21 08:12:00,35.5,36.0,27.32,ENE,67,0.0,0.0,99,0.00,,,0.00,Rainwise IP-100,2013-02-21 16:12:00,
2013-02-21 08:17:00,36.5,36.0,27.32,WSW,247,0.0,3.7,96,0.00,,,0.00,Rainwise IP-100,2013-02-21 16:17:00,
2013-02-21 08:22:00,37.0,35.0,27.33,ENE,67,1.6,5.4,93,0.00,,,0.00,Rainwise IP-100,2013-02-21 16:22:00,
2013-02-21 08:27:00,37.2,35.0,27.33,ESE,112,4.0,6.8,90,0.00,,,0.00,Rainwise IP-100,2013-02-21 16:27:00,
2013-02-21 08:32:00,37.4,33.0,27.32,ESE,112,0.0,4.7,87,0.00,,,0.00,Rainwise IP-100,2013-02-21 16:32:00,
2013-02-21 08:37:00,38.1,35.0,27.32,NE,45,2.1,4.2,86,0.00,,,0.00,Rainwise IP-100,2013-02-21 16:37:00,
2013-02-21 08:42:00,38.7,35.0,27.33,ENE,67,2.1,4.0,84,0.00,,,0.00,Rainwise IP-100,2013-02-21 16:42:00,
2013-02-21 08:47:00,38.9,35.0,27.33,ENE,67,1.2,4.7,83,0.00,,,0.00,Rainwise IP-100,2013-02-21 16:47:00,
2013-02-21 08:53:00,38.6,35.0,27.33,NE,45,1.4,4.7,82,0.00,,,0.00,Rainwise IP-100,2013-02-21 16:53:00,
2013-02-21 08:58:00,38.5,33.0,27.33,ENE,67,3.0,6.1,81,0.00,,,0.00,Rainwise IP-100,2013-02-21 16:58:00,
2013-02-21 09:03:00,38.7,33.0,27.33,ENE,67,1.6,4.9,80,0.00,,,0.00,Rainwise IP-100,2013-02-21 17:03:00,
2013-02-21 09:08:00,39.3,33.0,27.33,ESE,112,2.1,4.4,78,0.00,,,0.00,Rainwise IP-100,2013-02-21 17:08:00,
2013-02-21 09:13:00,39.8,33.0,27.33,ENE,67,1.9,6.3,76,0.00,,,0.00,Rainwise IP-100,2013-02-21 17:13:00,
2013-02-21 09:18:00,40.2,33.0,27.33,ENE,67,3.0,4.9,74,0.00,,,0.00,Rainwise IP-100,2013-02-21 17:18:00,
2013-02-21 09:23:00,40.9,33.0,27.34,ENE,67,1.2,5.8,72,0.00,,,0.00,Rainwise IP-100,2013-02-21 17:23:00,
2013-02-21 09:28:00,41.9,33.0,27.34,NE,45,2.3,4.7,70,0.00,,,0.00,Rainwise IP-100,2013-02-21 17:28:00,
2013-02-21 09:33:00,42.6,33.0,27.34,NE,45,2.8,4.0,68,0.00,,,0.00,Rainwise IP-100,2013-02-21 17:33:00,
2013-02-21 09:38:00,43.1,32.0,27.34,ENE,67,2.1,4.9,65,0.00,,,0.00,Rainwise IP-100,2013-02-21 17:38:00,
2013-02-21 09:43:00,44.0,32.0,27.35,NE,45,3.0,4.9,62,0.00,,,0.00,Rainwise IP-100,2013-02-21 17:43:00,
2013-02-21 09:48:00,44.4,31.0,27.35,NE,45,1.9,5.4,60,0.00,,,0.00,Rainwise IP-100,2013-02-21 17:48:00,
2013-02-21 09:54:00,44.5,32.0,27.35,NNE,22,0.0,5.8,60,0.00,,,0.00,Rainwise IP-100,2013-02-21 17:54:00,
2013-02-21 09:59:00,45.2,32.0,27.35,SW,225,1.9,4.0,59,0.00,,,0.00,Rainwise IP-100,2013-02-21 17:59:00,
2013-02-21 10:04:00,46.0,32.0,27.35,ENE,67,2.1,3.7,58,0.00,,,0.00,Rainwise IP-100,2013-02-21 18:04:00,
2013-02-21 10:09:00,46.0,32.0,27.35,SE,135,0.0,9.1,57,0.00,,,0.00,Rainwise IP-100,2013-02-21 18:09:00,
2013-02-21 10:14:00,46.1,31.0,27.35,SSE,157,1.6,4.9,55,0.00,,,0.00,Rainwise IP-100,2013-02-21 18:14:00,
2013-02-21 10:19:00,46.6,31.0,27.35,NE,45,2.8,2.8,54,0.00,,,0.00,Rainwise IP-100,2013-02-21 18:19:00,
2013-02-21 10:24:00,47.7,31.0,27.34,NE,45,3.3,5.1,53,0.00,,,0.00,Rainwise IP-100,2013-02-21 18:24:00,
2013-02-21 10:29:00,48.4,31.0,27.35,NE,45,3.0,3.7,51,0.00,,,0.00,Rainwise IP-100,2013-02-21 18:29:00,
2013-02-21 10:34:00,48.3,31.0,27.35,NNE,22,1.9,5.8,50,0.00,,,0.00,Rainwise IP-100,2013-02-21 18:34:00,
2013-02-21 10:39:00,48.4,31.0,27.34,SSE,157,1.6,5.1,49,0.00,,,0.00,Rainwise IP-100,2013-02-21 18:39:00,
2013-02-21 10:44:00,48.4,29.0,27.34,NNW,337,3.7,3.7,47,0.00,,,0.00,Rainwise IP-100,2013-02-21 18:44:00,
2013-02-21 10:49:00,48.6,28.0,27.34,ENE,67,0.0,7.0,44,0.00,,,0.00,Rainwise IP-100,2013-02-21 18:49:00,
2013-02-21 10:55:00,49.0,28.0,27.34,SSE,157,2.8,3.7,43,0.00,,,0.00,Rainwise IP-100,2013-02-21 18:55:00,
2013-02-21 11:00:00,49.5,28.0,27.34,SSE,157,0.0,7.5,41,0.00,,,0.00,Rainwise IP-100,2013-02-21 19:00:00,
2013-02-21 11:05:00,50.2,26.0,27.34,SSE,157,0.0,4.7,39,0.00,,,0.00,Rainwise IP-100,2013-02-21 19:05:00,
2013-02-21 11:10:00,51.4,26.0,27.34,NNE,22,0.0,4.0,37,0.00,,,0.00,Rainwise IP-100,2013-02-21 19:10:00,
2013-02-21 11:15:00,51.6,26.0,27.34,SSE,157,3.7,6.8,35,0.00,,,0.00,Rainwise IP-100,2013-02-21 19:15:00,
2013-02-21 11:21:00,50.5,23.0,27.34,SSE,157,3.7,7.5,33,0.00,,,0.00,Rainwise IP-100,2013-02-21 19:21:00,
2013-02-21 11:27:00,50.2,23.0,27.34,ESE,112,7.7,7.7,33,0.00,,,0.00,Rainwise IP-100,2013-02-21 19:27:00,
2013-02-21 11:32:00,50.2,23.0,27.34,East,90,0.0,8.6,34,0.00,,,0.00,Rainwise IP-100,2013-02-21 19:32:00,
2013-02-21 11:37:00,50.8,24.0,27.34,NNE,22,0.0,4.9,33,0.00,,,0.00,Rainwise IP-100,2013-02-21 19:37:00,
2013-02-21 11:42:00,51.0,23.0,27.34,NNE,22,0.0,5.8,32,0.00,,,0.00,Rainwise IP-100,2013-02-21 19:42:00,
2013-02-21 11:47:00,51.4,23.0,27.34,ESE,112,5.4,5.4,32,0.00,,,0.00,Rainwise IP-100,2013-02-21 19:47:00,
2013-02-21 11:52:00,50.9,23.0,27.34,SSE,157,1.4,6.3,31,0.00,,,0.00,Rainwise IP-100,2013-02-21 19:52:00,
2013-02-21 11:57:00,50.6,21.0,27.33,NNE,22,2.1,3.0,30,0.00,,,0.00,Rainwise IP-100,2013-02-21 19:57:00,
2013-02-21 12:02:00,51.7,23.0,27.34,ENE,67,1.4,6.3,31,0.00,,,0.00,Rainwise IP-100,2013-02-21 20:02:00,
2013-02-21 12:07:00,51.5,23.0,27.33,ESE,112,4.9,6.8,30,0.00,,,0.00,Rainwise IP-100,2013-02-21 20:07:00,
2013-02-21 12:12:00,50.6,21.0,27.33,SSW,202,3.5,7.5,30,0.00,,,0.00,Rainwise IP-100,2013-02-21 20:12:00,
2013-02-21 12:17:00,51.6,21.0,27.33,SSW,202,0.0,5.1,29,0.00,,,0.00,Rainwise IP-100,2013-02-21 20:17:00,
2013-02-21 12:22:00,51.0,24.0,27.33,SSE,157,0.0,7.9,34,0.00,,,0.00,Rainwise IP-100,2013-02-21 20:22:00,
2013-02-21 12:28:00,49.6,28.0,27.33,East,90,6.1,9.8,43,0.00,,,0.00,Rainwise IP-100,2013-02-21 20:28:00,
2013-02-21 12:33:00,49.7,31.0,27.33,NNE,22,2.3,8.4,46,0.00,,,0.00,Rainwise IP-100,2013-02-21 20:33:00,
2013-02-21 12:38:00,50.2,31.0,27.33,East,90,4.0,6.1,47,0.00,,,0.00,Rainwise IP-100,2013-02-21 20:38:00,
2013-02-21 12:43:00,50.6,32.0,27.33,NE,45,4.7,7.9,48,0.00,,,0.00,Rainwise IP-100,2013-02-21 20:43:00,
2013-02-21 12:48:00,50.2,31.0,27.32,SE,135,1.9,8.4,48,0.00,,,0.00,Rainwise IP-100,2013-02-21 20:48:00,
2013-02-21 12:53:00,49.9,32.0,27.32,ESE,112,4.2,7.0,49,0.00,,,0.00,Rainwise IP-100,2013-02-21 20:53:00,
2013-02-21 12:58:00,49.6,32.0,27.32,ESE,112,7.0,8.6,49,0.00,,,0.00,Rainwise IP-100,2013-02-21 20:58:00,
2013-02-21 13:03:00,49.7,32.0,27.32,ESE,112,3.7,8.4,49,0.00,,,0.00,Rainwise IP-100,2013-02-21 21:03:00,
2013-02-21 13:08:00,49.9,32.0,27.32,East,90,6.8,8.4,50,0.00,,,0.00,Rainwise IP-100,2013-02-21 21:08:00,
2013-02-21 13:13:00,49.8,32.0,27.31,East,90,7.2,9.1,50,0.00,,,0.00,Rainwise IP-100,2013-02-21 21:13:00,
2013-02-21 13:18:00,49.8,32.0,27.32,ESE,112,4.4,8.9,50,0.00,,,0.00,Rainwise IP-100,2013-02-21 21:18:00,
2013-02-21 13:23:00,49.8,32.0,27.32,ENE,67,2.6,12.1,50,0.06,,,0.01,Rainwise IP-100,2013-02-21 21:23:00,
2013-02-21 13:29:00,49.7,32.0,27.32,East,90,2.8,8.9,50,0.06,,,0.01,Rainwise IP-100,2013-02-21 21:29:00,
2013-02-21 13:34:00,50.0,32.0,27.32,ESE,112,4.4,9.3,51,0.00,,,0.01,Rainwise IP-100,2013-02-21 21:34:00,
2013-02-21 13:39:00,49.9,32.0,27.32,ESE,112,4.0,10.7,51,0.00,,,0.01,Rainwise IP-100,2013-02-21 21:39:00,
2013-02-21 13:44:00,50.0,32.0,27.32,ENE,67,0.0,7.0,51,0.00,,,0.01,Rainwise IP-100,2013-02-21 21:44:00,
2013-02-21 13:49:00,50.3,33.0,27.32,NE,45,7.5,8.6,52,0.00,,,0.01,Rainwise IP-100,2013-02-21 21:49:00,
2013-02-21 13:54:00,49.7,32.0,27.32,SE,135,6.1,8.2,51,0.00,,,0.01,Rainwise IP-100,2013-02-21 21:54:00,
2013-02-21 13:59:00,49.0,32.0,27.32,SSE,157,1.6,7.2,52,0.00,,,0.01,Rainwise IP-100,2013-02-21 21:59:00,
2013-02-21 14:04:00,49.3,33.0,27.32,ENE,67,1.2,8.9,53,0.00,,,0.01,Rainwise IP-100,2013-02-21 22:04:00,
2013-02-21 14:09:00,49.6,33.0,27.32,ESE,112,0.0,5.8,53,0.00,,,0.01,Rainwise IP-100,2013-02-21 22:09:00,
2013-02-21 14:14:00,49.9,33.0,27.32,SE,135,2.1,8.4,52,0.00,,,0.01,Rainwise IP-100,2013-02-21 22:14:00,
2013-02-21 14:19:00,50.1,33.0,27.32,ENE,67,5.8,6.3,52,0.00,,,0.01,Rainwise IP-100,2013-02-21 22:19:00,
2013-02-21 14:25:00,49.8,33.0,27.32,ENE,67,1.9,9.3,52,0.00,,,0.01,Rainwise IP-100,2013-02-21 22:25:00,
2013-02-21 14:30:00,49.7,33.0,27.32,NNE,22,0.0,6.3,52,0.00,,,0.01,Rainwise IP-100,2013-02-21 22:30:00,
2013-02-21 14:35:00,49.8,33.0,27.32,ENE,67,0.0,7.7,52,0.00,,,0.01,Rainwise IP-100,2013-02-21 22:35:00,
2013-02-21 14:40:00,49.7,33.0,27.32,SE,135,3.0,4.2,52,0.00,,,0.01,Rainwise IP-100,2013-02-21 22:40:00,
2013-02-21 14:45:00,49.8,33.0,27.32,SSE,157,2.1,4.7,52,0.00,,,0.01,Rainwise IP-100,2013-02-21 22:45:00,
2013-02-21 14:50:00,49.9,32.0,27.32,SSE,157,2.1,5.4,51,0.00,,,0.01,Rainwise IP-100,2013-02-21 22:50:00,
2013-02-21 14:56:00,49.8,32.0,27.32,East,90,4.4,6.8,50,0.00,,,0.01,Rainwise IP-100,2013-02-21 22:56:00,
2013-02-21 15:01:00,49.8,32.0,27.32,ESE,112,7.0,7.0,50,0.00,,,0.01,Rainwise IP-100,2013-02-21 23:01:00,
2013-02-21 15:06:00,49.7,32.0,27.32,ENE,67,2.6,10.0,50,0.00,,,0.01,Rainwise IP-100,2013-02-21 23:06:00,
2013-02-21 15:11:00,49.4,31.0,27.32,ESE,112,6.1,7.9,48,0.00,,,0.01,Rainwise IP-100,2013-02-21 23:11:00,
2013-02-21 15:16:00,49.3,31.0,27.32,South,180,0.0,6.3,48,0.00,,,0.01,Rainwise IP-100,2013-02-21 23:16:00,
2013-02-21 15:21:00,49.2,29.0,27.32,NNE,22,1.2,7.5,47,0.00,,,0.01,Rainwise IP-100,2013-02-21 23:21:00,
2013-02-21 15:26:00,49.1,31.0,27.32,NNE,22,1.4,5.6,48,0.00,,,0.01,Rainwise IP-100,2013-02-21 23:26:00,
2013-02-21 15:31:00,49.2,29.0,27.32,East,90,2.3,4.0,47,0.00,,,0.01,Rainwise IP-100,2013-02-21 23:31:00,
2013-02-21 15:36:00,49.2,29.0,27.32,ENE,67,0.0,7.0,46,0.00,,,0.01,Rainwise IP-100,2013-02-21 23:36:00,
2013-02-21 15:41:00,49.1,29.0,27.32,NE,45,2.6,5.4,45,0.00,,,0.01,Rainwise IP-100,2013-02-21 23:41:00,
2013-02-21 15:46:00,49.1,29.0,27.32,SSE,157,2.3,4.2,45,0.00,,,0.01,Rainwise IP-100,2013-02-21 23:46:00,
2013-02-21 15:51:00,48.7,29.0,27.32,NE,45,0.0,7.0,45,0.00,,,0.01,Rainwise IP-100,2013-02-21 23:51:00,
2013-02-21 15:57:00,48.4,29.0,27.32,ENE,67,0.0,4.4,46,0.00,,,0.01,Rainwise IP-100,2013-02-21 23:57:00,
2013-02-21 16:02:00,48.1,29.0,27.32,SE,135,0.0,7.9,47,0.00,,,0.01,Rainwise IP-100,2013-02-22 00:02:00,
2013-02-21 16:07:00,47.8,29.0,27.32,SSE,157,2.1,6.1,48,0.00,,,0.01,Rainwise IP-100,2013-02-22 00:07:00,
2013-02-21 16:12:00,47.6,29.0,27.32,NE,45,1.4,5.1,47,0.00,,,0.01,Rainwise IP-100,2013-02-22 00:12:00,
2013-02-21 16:17:00,47.3,29.0,27.32,ENE,67,3.5,3.7,48,0.00,,,0.01,Rainwise IP-100,2013-02-22 00:17:00,
2013-02-21 16:22:00,47.1,28.0,27.32,East,90,3.5,4.0,48,0.00,,,0.01,Rainwise IP-100,2013-02-22 00:22:00,
2013-02-21 16:27:00,46.8,29.0,27.32,ENE,67,0.0,4.0,49,0.00,,,0.01,Rainwise IP-100,2013-02-22 00:27:00,
2013-02-21 16:32:00,46.5,29.0,27.32,NNE,22,2.1,8.2,50,0.00,,,0.01,Rainwise IP-100,2013-02-22 00:32:00,
2013-02-21 16:37:00,46.2,29.0,27.32,ENE,67,3.3,5.8,51,0.00,,,0.01,Rainwise IP-100,2013-02-22 00:37:00,
2013-02-21 16:42:00,46.4,29.0,27.32,ENE,67,0.0,6.5,50,0.00,,,0.01,Rainwise IP-100,2013-02-22 00:42:00,
2013-02-21 16:47:00,46.3,28.0,27.32,NNE,22,0.0,5.6,49,0.00,,,0.01,Rainwise IP-100,2013-02-22 00:47:00,
2013-02-21 16:52:00,45.9,29.0,27.32,NE,45,0.0,4.4,50,0.00,,,0.01,Rainwise IP-100,2013-02-22 00:52:00,
2013-02-21 16:58:00,45.5,29.0,27.32,WNW,292,0.0,1.4,52,0.00,,,0.01,Rainwise IP-100,2013-02-22 00:58:00,
2013-02-21 17:03:00,45.2,29.0,27.32,North,360,0.0,5.6,52,0.00,,,0.01,Rainwise IP-100,2013-02-22 01:03:00,
2013-02-21 17:08:00,45.2,28.0,27.32,ESE,112,2.1,5.1,51,0.00,,,0.01,Rainwise IP-100,2013-02-22 01:08:00,
2013-02-21 17:13:00,44.9,29.0,27.32,WSW,247,0.0,2.6,53,0.00,,,0.01,Rainwise IP-100,2013-02-22 01:13:00,
2013-02-21 17:18:00,44.2,29.0,27.32,NW,315,0.0,2.1,55,0.00,,,0.01,Rainwise IP-100,2013-02-22 01:18:00,
2013-02-21 17:23:00,43.5,31.0,27.32,WSW,247,0.0,2.1,57,0.00,,,0.01,Rainwise IP-100,2013-02-22 01:23:00,
2013-02-21 17:28:00,43.2,29.0,27.32,SSE,157,0.0,2.8,57,0.00,,,0.01,Rainwise IP-100,2013-02-22 01:28:00,
2013-02-21 17:33:00,42.9,29.0,27.32,SSE,157,0.0,0.0,58,0.00,,,0.01,Rainwise IP-100,2013-02-22 01:33:00,
2013-02-21 17:38:00,42.4,29.0,27.33,SSE,157,0.0,0.0,60,0.00,,,0.01,Rainwise IP-100,2013-02-22 01:38:00,
2013-02-21 17:43:00,42.0,29.0,27.33,SSE,157,0.0,0.0,60,0.00,,,0.01,Rainwise IP-100,2013-02-22 01:43:00,
2013-02-21 17:48:00,41.6,29.0,27.33,SSE,157,0.0,0.0,60,0.00,,,0.01,Rainwise IP-100,2013-02-22 01:48:00,
2013-02-21 17:54:00,41.2,29.0,27.33,SSE,157,0.0,0.0,61,0.00,,,0.01,Rainwise IP-100,2013-02-22 01:54:00,
2013-02-21 17:59:00,40.7,29.0,27.33,SSE,157,0.0,0.0,63,0.00,,,0.01,Rainwise IP-100,2013-02-22 01:59:00,
2013-02-21 18:04:00,40.3,29.0,27.33,SSE,157,0.0,0.0,64,0.00,,,0.01,Rainwise IP-100,2013-02-22 02:04:00,
2013-02-21 18:09:00,39.9,29.0,27.33,SSE,157,0.0,0.0,65,0.00,,,0.01,Rainwise IP-100,2013-02-22 02:09:00,
2013-02-21 18:14:00,39.4,29.0,27.33,SSE,157,0.0,0.0,66,0.00,,,0.01,Rainwise IP-100,2013-02-22 02:14:00,
2013-02-21 18:19:00,38.8,29.0,27.33,SSE,157,0.0,0.0,67,0.00,,,0.01,Rainwise IP-100,2013-02-22 02:19:00,
2013-02-21 18:24:00,38.2,29.0,27.33,SSE,157,0.0,0.0,69,0.00,,,0.01,Rainwise IP-100,2013-02-22 02:24:00,
2013-02-21 18:29:00,37.7,29.0,27.33,SSE,157,0.0,0.0,70,0.00,,,0.01,Rainwise IP-100,2013-02-22 02:29:00,
2013-02-21 18:34:00,37.2,29.0,27.33,SSE,157,0.0,0.0,71,0.00,,,0.01,Rainwise IP-100,2013-02-22 02:34:00,
2013-02-21 18:39:00,36.8,29.0,27.33,SSE,157,0.0,0.0,72,0.00,,,0.01,Rainwise IP-100,2013-02-22 02:39:00,
2013-02-21 18:44:00,36.8,29.0,27.34,SSE,157,0.0,0.0,73,0.00,,,0.01,Rainwise IP-100,2013-02-22 02:44:00,
2013-02-21 18:49:00,36.7,29.0,27.33,SSE,157,0.0,0.0,74,0.00,,,0.01,Rainwise IP-100,2013-02-22 02:49:00,
2013-02-21 18:55:00,36.4,29.0,27.33,SSE,157,0.0,0.0,74,0.00,,,0.01,Rainwise IP-100,2013-02-22 02:55:00,
2013-02-21 19:00:00,36.3,29.0,27.34,SSE,157,0.0,0.0,74,0.00,,,0.01,Rainwise IP-100,2013-02-22 03:00:00,
2013-02-21 19:05:00,36.3,28.0,27.33,SSE,157,0.0,0.0,73,0.00,,,0.01,Rainwise IP-100,2013-02-22 03:05:00,
2013-02-21 19:10:00,36.2,28.0,27.33,SSE,157,0.0,0.0,73,0.00,,,0.01,Rainwise IP-100,2013-02-22 03:10:00,
2013-02-21 19:15:00,36.0,28.0,27.33,SSE,157,0.0,0.0,73,0.00,,,0.01,Rainwise IP-100,2013-02-22 03:15:00,
2013-02-21 19:20:00,35.7,29.0,27.34,SSE,157,0.0,0.0,74,0.00,,,0.01,Rainwise IP-100,2013-02-22 03:20:00,
2013-02-21 19:25:00,35.7,29.0,27.33,SSE,157,0.0,1.4,74,0.00,,,0.01,Rainwise IP-100,2013-02-22 03:25:00,
2013-02-21 19:30:00,36.0,29.0,27.34,SSE,157,1.2,1.4,74,0.00,,,0.01,Rainwise IP-100,2013-02-22 03:30:00,
2013-02-21 19:35:00,36.2,29.0,27.33,SSE,157,0.0,1.4,74,0.00,,,0.01,Rainwise IP-100,2013-02-22 03:35:00,
2013-02-21 19:41:00,36.0,29.0,27.34,SSE,157,1.2,1.4,74,0.00,,,0.01,Rainwise IP-100,2013-02-22 03:41:00,
2013-02-21 19:46:00,35.7,29.0,27.33,SSE,157,0.0,1.4,75,0.00,,,0.01,Rainwise IP-100,2013-02-22 03:46:00,
2013-02-21 19:51:00,35.6,29.0,27.34,SSE,157,0.0,1.4,75,0.00,,,0.01,Rainwise IP-100,2013-02-22 03:51:00,
2013-02-21 19:56:00,35.8,29.0,27.34,SSE,157,0.0,1.2,75,0.00,,,0.01,Rainwise IP-100,2013-02-22 03:56:00,
2013-02-21 20:03:00,35.9,29.0,27.34,SSE,157,0.0,0.0,75,0.00,,,0.01,Rainwise IP-100,2013-02-22 04:03:00,
2013-02-21 20:08:00,35.6,29.0,27.34,SSE,157,0.0,0.0,76,0.00,,,0.01,Rainwise IP-100,2013-02-22 04:08:00,
2013-02-21 20:13:00,35.1,28.0,27.34,SSE,157,0.0,0.0,77,0.00,,,0.01,Rainwise IP-100,2013-02-22 04:13:00,
2013-02-21 20:18:00,34.7,28.0,27.34,SSE,157,0.0,0.0,77,0.00,,,0.01,Rainwise IP-100,2013-02-22 04:18:00,
2013-02-21 20:23:00,34.6,29.0,27.34,SSE,157,0.0,0.0,78,0.00,,,0.01,Rainwise IP-100,2013-02-22 04:23:00,
2013-02-21 20:28:00,34.7,29.0,27.33,SSE,157,0.0,0.0,78,0.00,,,0.01,Rainwise IP-100,2013-02-22 04:28:00,
2013-02-21 20:33:00,34.7,29.0,27.34,SSE,157,0.0,0.0,78,0.00,,,0.01,Rainwise IP-100,2013-02-22 04:33:00,
2013-02-21 20:38:00,34.6,29.0,27.34,SSE,157,0.0,1.4,78,0.00,,,0.01,Rainwise IP-100,2013-02-22 04:38:00,
2013-02-21 20:44:00,34.6,29.0,27.34,NNW,337,2.6,4.0,78,0.00,,,0.01,Rainwise IP-100,2013-02-22 04:44:00,
2013-02-21 20:49:00,34.8,28.0,27.34,NNW,337,2.8,3.3,76,0.00,,,0.01,Rainwise IP-100,2013-02-22 04:49:00,
2013-02-21 20:54:00,34.9,28.0,27.34,NNW,337,0.0,2.8,76,0.00,,,0.01,Rainwise IP-100,2013-02-22 04:54:00,
2013-02-21 20:59:00,34.5,29.0,27.34,NNW,337,1.9,2.3,78,0.00,,,0.01,Rainwise IP-100,2013-02-22 04:59:00,
2013-02-21 21:00:00,34.4,29.0,27.35,NNW,337,0.0,2.3,78,0.00,,,0.01,Rainwise IP-100,2013-02-22 05:00:00,
2013-02-21 21:01:00,34.3,29.0,27.35,NNW,337,1.6,2.3,78,0.00,,,0.01,Rainwise IP-100,2013-02-22 05:01:00,
2013-02-21 21:02:00,34.2,29.0,27.34,NNW,337,1.2,2.3,78,0.00,,,0.01,Rainwise IP-100,2013-02-22 05:02:00,
2013-02-21 21:06:00,34.0,29.0,27.35,NNW,337,0.0,2.3,79,0.00,,,0.01,Rainwise IP-100,2013-02-22 05:06:00,
2013-02-21 21:11:00,34.1,29.0,27.35,NNW,337,0.0,1.6,80,0.00,,,0.01,Rainwise IP-100,2013-02-22 05:11:00,
2013-02-21 21:16:00,34.2,29.0,27.35,NNW,337,0.0,1.2,80,0.00,,,0.01,Rainwise IP-100,2013-02-22 05:16:00,
2013-02-21 21:21:00,34.0,29.0,27.35,NNW,337,1.2,1.6,80,0.00,,,0.01,Rainwise IP-100,2013-02-22 05:21:00,
2013-02-21 21:26:00,33.8,29.0,27.35,NNW,337,1.6,2.1,81,0.00,,,0.01,Rainwise IP-100,2013-02-22 05:26:00,
2013-02-21 21:31:00,33.5,29.0,27.35,NNW,337,1.4,2.8,81,0.00,,,0.01,Rainwise IP-100,2013-02-22 05:31:00,
2013-02-21 21:36:00,33.1,29.0,27.35,NNW,337,0.0,2.1,82,0.00,,,0.01,Rainwise IP-100,2013-02-22 05:36:00,
2013-02-21 21:42:00,33.0,29.0,27.35,NNW,337,0.0,0.0,83,0.00,,,0.01,Rainwise IP-100,2013-02-22 05:42:00,
2013-02-21 21:47:00,32.8,29.0,27.35,NNW,337,0.0,0.0,83,0.00,,,0.01,Rainwise IP-100,2013-02-22 05:47:00,
2013-02-21 21:52:00,32.6,29.0,27.35,NNW,337,0.0,0.0,83,0.00,,,0.01,Rainwise IP-100,2013-02-22 05:52:00,
2013-02-21 21:57:00,32.6,29.0,27.35,NNW,337,0.0,0.0,84,0.00,,,0.01,Rainwise IP-100,2013-02-22 05:57:00,
2013-02-21 22:02:00,32.6,29.0,27.35,NNW,337,0.0,0.0,84,0.00,,,0.01,Rainwise IP-100,2013-02-22 06:02:00,
2013-02-21 22:07:00,32.7,29.0,27.35,NNW,337,0.0,0.0,84,0.00,,,0.01,Rainwise IP-100,2013-02-22 06:07:00,
2013-02-21 22:12:00,32.9,29.0,27.35,NNW,337,1.2,0.0,84,0.00,,,0.01,Rainwise IP-100,2013-02-22 06:12:00,
2013-02-21 22:17:00,33.7,31.0,27.36,NNW,337,1.2,2.6,83,0.00,,,0.01,Rainwise IP-100,2013-02-22 06:17:00,
2013-02-21 22:22:00,34.9,29.0,27.36,NNW,337,0.0,1.6,80,0.00,,,0.01,Rainwise IP-100,2013-02-22 06:22:00,
2013-02-21 22:27:00,35.5,31.0,27.36,NNW,337,0.0,0.0,79,0.00,,,0.01,Rainwise IP-100,2013-02-22 06:27:00,
2013-02-21 22:32:00,35.6,29.0,27.35,NNW,337,0.0,0.0,78,0.00,,,0.01,Rainwise IP-100,2013-02-22 06:32:00,
2013-02-21 22:37:00,35.3,29.0,27.36,NNW,337,0.0,0.0,79,0.00,,,0.01,Rainwise IP-100,2013-02-22 06:37:00,
2013-02-21 22:43:00,34.6,29.0,27.36,NNW,337,0.0,1.6,80,0.00,,,0.01,Rainwise IP-100,2013-02-22 06:43:00,
2013-02-21 22:48:00,34.0,29.0,27.36,NNW,337,1.9,2.3,80,0.00,,,0.01,Rainwise IP-100,2013-02-22 06:48:00,
2013-02-21 22:53:00,33.8,29.0,27.36,NNW,337,2.6,3.5,81,0.00,,,0.01,Rainwise IP-100,2013-02-22 06:53:00,
2013-02-21 22:58:00,33.8,29.0,27.36,NNW,337,1.6,3.0,80,0.00,,,0.01,Rainwise IP-100,2013-02-22 06:58:00,
2013-02-21 23:03:00,33.8,29.0,27.36,NNW,337,2.6,3.5,80,0.00,,,0.01,Rainwise IP-100,2013-02-22 07:03:00,
2013-02-21 23:08:00,33.4,28.0,27.35,NNW,337,2.6,2.8,81,0.00,,,0.01,Rainwise IP-100,2013-02-22 07:08:00,
2013-02-21 23:13:00,32.9,29.0,27.36,NNW,337,2.3,3.7,82,0.00,,,0.01,Rainwise IP-100,2013-02-22 07:13:00,
2013-02-21 23:19:00,32.7,29.0,27.36,NNW,337,1.4,2.8,82,0.00,,,0.01,Rainwise IP-100,2013-02-22 07:19:00,
2013-02-21 23:25:00,32.7,29.0,27.36,NNW,337,2.6,2.6,83,0.00,,,0.01,Rainwise IP-100,2013-02-22 07:25:00,
2013-02-21 23:30:00,32.6,29.0,27.36,NNW,337,1.4,2.6,83,0.00,,,0.01,Rainwise IP-100,2013-02-22 07:30:00,
2013-02-21 23:35:00,32.4,28.0,27.36,NNW,337,0.0,2.1,84,0.00,,,0.01,Rainwise IP-100,2013-02-22 07:35:00,
2013-02-21 23:40:00,32.3,28.0,27.36,NNW,337,0.0,1.6,84,0.00,,,0.01,Rainwise IP-100,2013-02-22 07:40:00,
2013-02-21 23:45:00,32.1,28.0,27.36,NNW,337,1.2,1.6,85,0.00,,,0.01,Rainwise IP-100,2013-02-22 07:45:00,
2013-02-21 23:50:00,32.0,28.0,27.36,NNW,337,1.2,2.1,85,0.00,,,0.01,Rainwise IP-100,2013-02-22 07:50:00,
2013-02-21 23:55:00,32.0,28.0,27.36,NNW,337,0.0,2.3,86,0.00,,,0.01,Rainwise IP-100,2013-02-22 07:55:00,